Flag for France Weather past 2 weeks in Montpellier, France

Now
41 °F

Clear.


Feels Like: 36 °F
Forecast: 31 / 47 °F
Wind: 7 mph from Northwest

Location: Montpellier Airport

Current Time: Feb 1, 2015 at 7:16:41 AM

Latest Report: Feb 1, 2015 at 6:30 AM


Visibility: 10 mi

Pressure: 29.42 "Hg

Humidity: 61%

Dew point: 28 °F

Location of MontpellierLocation

Historic Weather in Montpellier — Graph

°F

Montpellier temperature yesterday

Maximum temperature yesterday: 54 °F (at 1:00 PM)
Minimum temperature yesterday: 34 °F (at 7:00 AM)
Average temperature yesterday: 44 °F

Past Weeks' High & Low Weather Summary

 TemperatureHumidityPressure
High55 °F (Jan 28, 2:07 PM)100% (Jan 19, 10:00 AM)30.33 "Hg (Jan 19, 10:00 AM)
Low28 °F (Jan 24, 7:30 AM)22% (Jan 25, 4:30 PM)29.12 "Hg (Jan 31, 5:00 AM)
Average44 °F66%29.86 "Hg
* Reported Jan 17 6:00 AM — Feb 1 6:00 AM, Montpellier, Weather by CustomWeather, © 2014

Note: Actual official high and low records may vary slightly from our data, if they occured in-between our weather recording intervals... More about our weather records

Advertising

Montpellier weather history for previous 24 hours

 ConditionsComfort  
Time TempWeatherWind HumidityBarometerVisibility
6:00 AM
Feb 1
41 °FClear.10 mph66%29.39 "Hg10 mi
5:30 AM43 °FClear.13 mph61%29.39 "Hg10 mi
5:00 AM43 °FClear.12 mph57%29.39 "Hg10 mi
4:30 AM43 °FPassing clouds.18 mph61%29.39 "HgN/A
4:00 AM41 °FClear.8 mph66%29.36 "Hg10 mi
3:30 AM41 °FClear.13 mph66%29.36 "HgN/A
3:00 AM41 °FPassing clouds.15 mph70%29.39 "HgN/A
2:30 AM41 °FClear.14 mph66%29.36 "HgN/A
2:00 AM41 °FClear.10 mph66%29.36 "HgN/A
1:30 AM41 °FClear.8 mph66%29.39 "HgN/A
1:00 AM39 °FPartly cloudy.6 mph70%29.39 "HgN/A
12:30 AM39 °FClear.5 mph70%29.39 "HgN/A
12:00 AM41 °FClear.5 mph66%29.36 "Hg10 mi
11:30 PM
Jan 31
41 °FPassing clouds.7 mph70%29.36 "HgN/A
11:00 PM43 °FClear.9 mph61%29.36 "Hg10 mi
10:30 PM43 °FClear.7 mph61%29.36 "Hg10 mi
9:30 PM43 °FPassing clouds.8 mph61%29.33 "HgN/A
9:00 PM43 °FClear.15 mph61%29.33 "Hg10 mi
8:30 PM41 °FClear.8 mph66%29.33 "Hg10 mi
8:00 PM43 °FClear.16 mph66%29.33 "Hg10 mi
7:30 PM45 °FClear.16 mph57%29.30 "Hg10 mi
7:00 PM45 °FClear.15 mph61%29.30 "Hg10 mi
6:30 PM45 °FClear.14 mph61%29.27 "Hg10 mi
6:00 PM46 °FClear.17 mph53%29.27 "Hg10 mi
5:30 PM48 °FSunny.14 mph46%29.24 "Hg10 mi
5:00 PM48 °FSunny.20 mph46%29.24 "Hg10 mi
4:30 PM50 °FSunny.17 mph43%29.21 "Hg10 mi
4:00 PM52 °FSunny.21 mph41%29.21 "Hg10 mi
3:30 PM52 °FPassing clouds.18 mph41%29.21 "HgN/A
3:00 PM52 °FSunny.20 mph41%29.18 "Hg10 mi
2:30 PM54 °FSunny.18 mph44%29.18 "Hg10 mi
2:00 PM52 °FSunny.18 mph47%29.18 "Hg10 mi
1:30 PM52 °FPassing clouds.18 mph50%29.15 "HgN/A
1:00 PM54 °FSunny.14 mph47%29.15 "Hg10 mi
12:30 PM50 °FPassing clouds.15 mph54%29.15 "HgN/A
12:00 PM50 °FSunny.16 mph54%29.15 "Hg10 mi
11:30 AM50 °FPassing clouds.10 mph58%29.15 "HgN/A
11:00 AM48 °FSunny.10 mph62%29.15 "Hg10 mi
10:30 AM46 °FSunny.10 mph66%29.15 "Hg10 mi
10:00 AM46 °FSunny.6 mph66%29.15 "Hg10 mi
9:30 AM43 °FBroken clouds.3 mph76%29.15 "HgN/A
9:00 AM39 °FBroken clouds.2 mph87%29.12 "HgN/A
8:30 AM36 °FSunny.7 mph87%29.12 "Hg10 mi
8:00 AM36 °FClear.3 mph87%29.12 "Hg10 mi
7:30 AM34 °FClear.2 mph87%29.12 "Hg10 mi
7:00 AM34 °FClear.5 mph87%29.12 "Hg10 mi
Weather by CustomWeather, © 2014

See weather overviewHow to use our weather pages